Weather History for Agadir Al Massira, Morocco

Change the Weather History Date:

Monday, November 12, 2012

  Actual Average Record
Temperature  
Mean Temperature 64 °F -  
Max Temperature 72 °F - - ()
Min Temperature 50 °F - - ()
Degree Days  
Heating Degree Days 2    
Growing Degree Days 14 (Base 50)    
Moisture  
Dew Point 43 °F    
Average Humidity 50    
Maximum Humidity 82    
Minimum Humidity 24    
Precipitation  
Precipitation 0.00 in - - ()
Sea Level Pressure  
Sea Level Pressure 29.92 in    
Wind  
Wind Speed 5 mph ()    
Max Wind Speed 15 mph    
Max Gust Speed -    
Visibility 6.0 miles    
Events      
T = Trace of Precipitation, MM = Missing Value Source: Averaged Metar Reports

Daily Weather History Graph

Daily Weather History Graph

Search for Another Location

Airport:

Trip Planner

Search our weather history database for the weather conditions in past years. The results will help you decide how hot, cold, wet, or windy it might be!

Date:

Astronomy

Nov. 12, 2012 Rise Set
Actual Time 7:00 AM WET 5:42 PM WET
Civil Twilight 6:35 AM WET 6:07 PM WET
Nautical Twilight 6:06 AM WET 6:36 PM WET
Astronomical Twilight 5:38 AM WET 7:04 PM WET
Moon 5:15 AM WET (11/12) 4:34 PM WET (11/12)
Length of Visible Light 11h 31m
Length of Day
10h 41m
Waning Crescent, 3% of the Moon is Illuminated
Nov 12
Waning Crescent
Nov 13
New
Nov 20
First Quarter
Nov 28
Full
Dec 6
Last Quarter

Hourly Weather History & Observations

Time (WET) Temp. Dew Point Humidity Pressure Visibility Wind Dir Wind Speed Gust Speed Precip Events Conditions
12:00 AM 60 °F 45 °F 46% 29.95 in 6 mi WSW 5.8 mph - -  
12:00 AM 60.8 °F 44.6 °F 55% 29.95 in - WSW 5.8 mph - N/A   Clear
1:00 AM 62.6 °F 44.6 °F 52% 29.92 in - SW 6.9 mph - N/A   Clear
2:00 AM 60.8 °F 44.6 °F 55% 29.92 in - WSW 6.9 mph - N/A   Clear
3:00 AM 58 °F 45 °F 52% 29.91 in 6 mi SSW 5.8 mph - -  
3:00 AM 59.0 °F 44.6 °F 59% 29.89 in - SSW 5.8 mph - N/A   Clear
4:00 AM 60.8 °F 41.0 °F 48% 29.86 in - WNW 15.0 mph - N/A   Clear
5:00 AM 64.4 °F 35.6 °F 34% 29.86 in - NNW 11.5 mph - N/A   Clear
6:00 AM 59 °F 35 °F 29% 29.88 in 6 mi WNW 8.1 mph - -  
6:00 AM 59.0 °F 35.6 °F 42% 29.86 in - WNW 8.1 mph - N/A   Clear
7:00 AM 57.2 °F 37.4 °F 48% 29.89 in - North 6.9 mph - N/A   Clear
8:00 AM 55.4 °F 42.8 °F 63% 29.92 in - North 3.5 mph - N/A   Clear
8:30 AM 58 °F 46 °F 55% 29.96 in 6 mi NNE 6.9 mph - -   Clear
9:00 AM 59.0 °F 46.4 °F 63% 29.95 in - NNE 6.9 mph - N/A   Clear
10:00 AM 60.8 °F 44.6 °F 55% 29.98 in - NE 5.8 mph - N/A   Clear
11:00 AM 64.4 °F 44.6 °F 49% 29.98 in - Calm Calm - N/A   Clear
12:00 PM 68.0 °F 42.8 °F 40% 29.98 in - Variable 2.3 mph - N/A   Clear
1:00 PM 69.8 °F 41.0 °F 35% 29.92 in 6.2 mi Variable 2.3 mph - N/A   Unknown
2:00 PM 71.6 °F 39.2 °F 31% 29.89 in - East 1.2 mph - N/A   Clear
3:00 PM 71 °F 42 °F 24% 29.90 in 6 mi South 3.5 mph - -  
3:00 PM 71.6 °F 42.8 °F 35% 29.89 in - South 3.5 mph - N/A   Clear
4:00 PM 71.6 °F 42.8 °F 35% 29.89 in - SSW 3.5 mph - N/A   Clear
5:00 PM 69.8 °F 44.6 °F 40% 29.89 in - SSE 3.5 mph - N/A   Clear
6:00 PM 64 °F 45 °F 38% 29.91 in 6 mi South 2.3 mph - -  
6:00 PM 64.4 °F 44.6 °F 49% 29.92 in - South 2.3 mph - N/A   Clear
7:00 PM 59.0 °F 46.4 °F 63% 29.92 in - Calm Calm - N/A   Clear
8:00 PM 57.2 °F 46.4 °F 67% 29.95 in - SE 1.2 mph - N/A   Clear
9:00 PM 56 °F 46 °F 59% 29.98 in 6 mi SE 6.9 mph - -  
9:00 PM 55.4 °F 46.4 °F 72% 29.98 in - SE 6.9 mph - N/A   Clear
10:00 PM 57.2 °F 46.4 °F 67% 29.98 in 6.2 mi South 3.5 mph - N/A   Unknown
11:00 PM 50.0 °F 44.6 °F 82% 29.98 in - East 3.5 mph - N/A   Unknown